DateTimeUTC,F1_A11,F1_S11,BsB_S11,BsG_S11,BsR_S11,BbsB_S11,BbsG_S11,BbsR_S11,BaB_A11,BaG_A11,BaR_A11,Tu_S11,T_S11,Uu_S11,U_S11,P_S11,T1_A11
2021-02-15T18:00:00Z,00000200,21000000,,,,,,,-000.01,-000.21,-000.20,18.2,24.3,00.3,00.2,0635.4,31.2
2021-02-15T18:01:00Z,00000200,21000000,,,,,,,0000.24,0000.08,0000.21,18.3,24.3,00.3,00.2,0635.4,31.1
2021-02-15T18:02:00Z,00000200,21000000,,,,,,,0000.25,-000.02,0000.06,18.3,24.3,00.3,00.2,0635.4,31.1
2021-02-15T18:03:00Z,00000200,61000000,,,,,,,0000.10,0000.33,-000.15,18.3,24.4,00.3,00.2,0635.4,31.1
2021-02-15T18:04:00Z,00000200,41000000,0000.22,-000.01,-000.03,0000.20,0000.02,0000.28,-000.14,0000.14,0000.17,18.6,24.4,00.5,00.3,0636.3,31.1
2021-02-15T18:05:00Z,00000200,01000000,-000.26,0000.35,0000.12,-000.11,-000.07,0000.22,-000.12,-000.29,-000.22,18.7,24.4,00.5,00.4,0636.4,31.1
2021-02-15T18:06:00Z,00000200,01000000,0000.24,0000.15,0000.02,0000.07,-000.13,-000.31,0000.28,0000.15,-000.16,18.7,24.4,00.4,00.3,0636.3,31.1
2021-02-15T18:07:00Z,00000200,01000000,-000.15,0000.05,0000.12,0000.28,0000.03,-000.03,-000.07,-000.02,0000.25,18.7,24.4,00.5,00.3,0636.3,31.1
2021-02-15T18:08:00Z,00000200,01000000,0000.65,0000.27,0000.16,-000.07,-000.15,0000.27,-000.15,0000.05,0000.05,18.6,24.4,00.5,00.3,0636.3,31.1
2021-02-15T18:09:00Z,00000200,01000000,0000.28,0000.19,0000.07,-000.02,0000.03,-000.14,0000.13,-000.37,-000.07,18.6,24.4,00.5,00.3,0636.2,31.1
2021-02-15T18:10:00Z,00000200,01000000,-000.44,0000.53,0000.33,0000.28,0000.02,0000.26,0000.09,0000.26,0000.11,18.5,24.3,00.5,00.3,0636.5,31.1
2021-02-15T18:11:00Z,00000200,01000000,0000.41,0000.18,0000.35,-000.27,-000.11,0000.29,-000.20,-000.19,0000.06,18.4,24.3,00.5,00.4,0636.4,31.1
2021-02-15T18:12:00Z,00000200,01000000,0000.60,0000.07,0000.02,0000.32,-000.02,-000.29,0000.23,0000.41,0000.12,18.4,24.3,00.5,00.4,0636.5,31.1
2021-02-15T18:13:00Z,00000200,01000000,-000.13,0000.25,-000.15,0000.10,0000.14,0000.12,0000.22,0000.07,-000.15,18.3,24.3,00.5,00.3,0636.5,31.1
2021-02-15T18:14:00Z,00000200,01000000,0000.43,0000.22,-000.02,0000.51,0000.20,0000.03,0000.18,0000.22,0000.11,18.3,24.3,00.6,00.4,0636.6,31.0
2021-02-15T18:15:00Z,00000200,01000000,-000.04,0000.39,0000.23,0000.38,0000.03,0000.17,-000.18,0000.00,-000.10,18.2,24.2,00.6,00.4,0636.3,31.0
2021-02-15T18:16:00Z,00000200,01000000,0000.33,0000.53,-000.04,0000.23,0000.19,0000.36,-000.02,-000.10,-000.04,18.2,24.2,00.5,00.4,0636.6,31.0
2021-02-15T18:17:00Z,00000200,01000000,-000.08,0000.08,0000.12,0000.07,-000.16,0000.02,0000.08,0000.03,0000.08,18.1,24.2,00.6,00.4,0636.5,31.0
2021-02-15T18:18:00Z,00000200,01000000,0000.89,-000.16,0000.05,-000.00,0000.22,-000.10,0000.18,0000.15,0000.37,18.1,24.1,00.7,00.5,0636.5,31.1
2021-02-15T18:19:00Z,00000200,01000000,0000.11,-000.10,0000.44,0000.24,-000.03,0000.06,0000.36,-000.04,-000.46,18.1,24.1,00.5,00.4,0636.4,31.0
2021-02-15T18:20:00Z,00000200,01000000,0000.12,0000.36,0000.40,0000.45,-000.08,0000.24,-000.33,-000.02,0000.05,18.0,24.1,00.6,00.4,0636.4,31.0
2021-02-15T18:21:00Z,00000200,01000000,0000.12,-000.05,-000.03,0000.20,-000.04,0000.03,0000.15,0000.10,0000.36,18.0,24.1,00.6,00.4,0636.6,31.0
2021-02-15T18:22:00Z,00000200,01000000,-000.26,0000.17,0000.27,0000.01,0000.06,0000.19,-000.07,0000.26,0000.21,17.9,24.0,00.7,00.5,0636.6,31.0
2021-02-15T18:23:00Z,00000200,01000000,-000.10,0000.10,0000.12,0000.47,-000.10,0000.41,0000.14,-000.05,0000.13,17.9,24.0,00.7,00.5,0636.4,31.0
2021-02-15T18:24:00Z,00000200,01000000,-000.01,0000.24,-000.00,0000.40,0000.06,0000.25,0000.08,0000.02,-000.16,17.9,24.0,00.6,00.4,0636.6,31.0
2021-02-15T18:25:00Z,00000200,01000000,0000.09,0000.32,0000.29,0000.25,-000.19,0000.26,0000.20,-000.06,-000.46,17.9,24.0,00.7,00.5,0636.5,31.0
2021-02-15T18:26:00Z,00000200,01000000,0000.09,0000.14,0000.00,0000.88,-000.02,-000.00,0000.11,0000.25,0000.44,17.8,23.9,00.6,00.4,0636.5,31.0
2021-02-15T18:27:00Z,00000200,01000000,-000.03,0000.05,-000.22,0000.57,-000.07,0000.31,0000.04,0000.13,-000.03,17.8,23.9,00.6,00.4,0636.6,31.0
2021-02-15T18:28:00Z,00000200,01000000,0000.80,0000.21,-000.28,0000.92,-000.14,-000.34,0000.19,-000.03,0000.28,17.8,23.9,00.6,00.4,0636.4,31.0
2021-02-15T18:29:00Z,00000200,01000000,-000.13,0000.25,0000.21,0000.29,-000.19,0000.31,0000.01,-000.18,-000.30,17.7,23.9,00.7,00.5,0636.6,31.0
2021-02-15T18:30:00Z,00000200,01000000,-000.23,0000.22,0000.12,0000.51,-000.21,0000.16,-000.31,0000.12,0000.09,17.7,23.8,00.6,00.4,0636.4,31.0
2021-02-15T18:31:00Z,00000200,01000000,-000.17,0000.51,-000.12,0000.30,0000.10,-000.15,0000.31,0000.26,0000.29,17.6,23.8,00.7,00.5,0636.5,31.0
2021-02-15T18:32:00Z,00000200,01000000,0000.15,0000.12,-000.29,-000.47,-000.05,-000.11,0000.05,0000.08,0000.03,17.6,23.8,00.7,00.5,0636.5,31.0
2021-02-15T18:33:00Z,00000200,01000000,0000.41,0000.22,-000.05,0000.12,-000.06,-000.17,0000.14,-000.12,0000.00,17.6,23.8,00.6,00.4,0636.3,31.0
2021-02-15T18:34:00Z,00000200,01000000,0000.59,0000.20,-000.07,0000.32,-000.04,0000.13,0000.29,-000.13,0000.02,17.6,23.7,00.6,00.4,0636.3,31.0
2021-02-15T18:35:00Z,00000200,01000000,0000.03,0000.24,-000.00,0000.59,0000.00,0000.32,-000.13,0000.63,0000.13,17.5,23.7,00.8,00.5,0636.4,31.0
2021-02-15T18:36:00Z,00000200,01000000,0000.38,0000.15,0000.23,0000.17,0000.08,0000.19,-000.13,-000.14,0000.05,17.6,23.7,00.7,00.5,0636.5,31.0
2021-02-15T18:37:00Z,00000200,01000000,-000.31,0000.33,-000.11,0000.86,-000.29,0000.16,0000.48,-000.02,0000.51,17.6,23.7,00.8,00.5,0636.4,31.0
2021-02-15T18:38:00Z,00000200,01000000,0000.05,0000.11,-000.13,-000.35,-000.02,0000.18,0000.29,0000.38,-000.12,17.7,23.7,00.7,00.5,0636.4,31.0
2021-02-15T18:39:00Z,00000200,01000000,0000.13,0000.16,-000.07,0000.03,-000.06,-000.13,0000.18,-000.12,0000.19,17.8,23.8,00.7,00.5,0636.4,31.0
2021-02-15T18:40:00Z,00000200,01000000,-000.40,0000.14,0000.23,0000.45,-000.15,-000.06,0000.09,0000.36,-000.02,17.8,23.8,00.7,00.5,0636.4,31.1
2021-02-15T18:41:00Z,00000200,01000000,-000.07,0000.60,-000.17,0000.51,-000.07,0000.04,0000.06,-000.09,0000.04,17.9,23.9,00.7,00.5,0636.4,31.0
2021-02-15T18:42:00Z,00000200,01000000,-000.23,0000.27,-000.19,0000.20,-000.06,-000.20,0000.10,0000.20,0000.22,18.0,23.9,00.6,00.4,0636.4,31.1
2021-02-15T18:43:00Z,00000200,01000000,0000.01,0000.31,-000.18,-000.11,-000.14,0000.05,0000.02,-000.25,-000.18,18.0,23.9,00.6,00.4,0636.4,31.1
2021-02-15T18:44:00Z,00000200,01000000,-000.22,0000.22,-000.08,0000.12,0000.18,0000.28,-000.03,0000.59,0000.25,18.1,24.0,00.6,00.4,0636.6,31.1
2021-02-15T18:45:00Z,00000200,01000000,-000.11,0000.57,-000.16,-000.02,-000.09,-000.06,0000.22,-000.13,0000.23,18.2,24.0,00.5,00.4,0636.6,31.1
2021-02-15T18:46:00Z,00000200,01000000,-000.28,0000.50,0000.01,0000.11,-000.30,0000.33,0000.38,0000.39,0000.04,18.2,24.0,00.5,00.4,0636.6,31.1
2021-02-15T18:47:00Z,00000200,01000000,-000.57,-000.03,0000.03,-000.17,0000.10,0000.19,-000.44,-000.16,0000.04,18.3,24.1,00.6,00.4,0636.7,31.1
2021-02-15T18:48:00Z,00000200,01000000,-000.54,0000.21,0000.07,0000.62,-000.13,0000.03,0000.17,0000.24,0000.07,18.4,24.2,00.5,00.4,0636.6,31.1
2021-02-15T18:49:00Z,00000200,01000000,0000.19,0000.10,0000.06,0000.05,-000.10,-000.09,-000.11,-000.28,0000.03,18.4,24.2,00.6,00.4,0636.6,31.1
2021-02-15T18:50:00Z,00000200,01000000,-000.45,0000.18,-000.12,-000.08,-000.24,-000.46,0000.19,0000.17,-000.06,18.5,24.2,00.5,00.3,0636.6,31.1
2021-02-15T18:51:00Z,00000200,01000000,0000.34,-000.22,-000.12,0000.17,-000.12,0000.13,-000.03,0000.28,0000.01,18.5,24.2,00.5,00.4,0636.5,31.1
2021-02-15T18:52:00Z,00000200,01000000,0000.29,0000.31,0000.16,0000.44,-000.11,0000.21,0000.12,0000.12,-000.22,18.5,24.2,00.5,00.4,0636.7,31.1
2021-02-15T18:53:00Z,00000200,01000000,-000.20,-000.20,-000.11,-000.04,-000.23,0000.18,-000.15,-000.08,0000.27,18.5,24.2,00.5,00.3,0636.6,31.1
2021-02-15T18:54:00Z,00000200,01000000,0000.23,-000.00,0000.26,0000.50,0000.05,0000.30,0000.13,0000.06,0000.08,18.5,24.2,00.4,00.3,0636.6,31.1
2021-02-15T18:55:00Z,00000200,01000000,0000.29,0000.37,-000.01,-000.11,-000.03,0000.10,0000.25,-000.19,0000.04,18.5,24.2,00.4,00.3,0636.7,31.1
2021-02-15T18:56:00Z,00000200,01000000,0000.45,0000.18,-000.01,0000.20,-000.05,-000.10,-000.10,-000.03,-000.22,18.4,24.2,00.5,00.4,0636.6,31.1
2021-02-15T18:57:00Z,00000200,41000000,,,,,,,0000.12,0000.25,0000.17,18.4,24.2,00.6,00.4,0636.4,31.1
2021-02-15T18:58:00Z,00000200,61000000,,,,,,,-000.10,-000.24,-000.06,18.2,24.3,00.3,00.2,0635.7,31.1
2021-02-15T18:59:00Z,00000200,21000000,,,,,,,-000.04,-000.07,-000.10,18.1,24.4,00.3,00.2,0635.6,31.1
